CW7324 Weather Reports


time (UTC)temp
F
wind
direction
speed
knots
gust
knots
rain 1hr
in
rain 24hr
in
rain mn
in
humidity
%
barometer
mb
20260504202035 69 194 2.6 9.6 0.00 0.00 0.00 37 1004.7
20260504201531 69 196 3.5 7.8 0.00 0.00 0.00 34 1004.8
20260504201038 69 185 1.7 13.9 0.00 0.00 0.00 35 1004.7
20260504200533 68 211 5.2 13.9 0.00 0.00 0.00 34 1004.8
20260504200032 68 189 2.6 13.9 0.00 0.00 0.00 40 1004.7
20260504195533 68 190 4.3 13.9 0.00 0.00 0.00 39 1004.8
20260504195032 68 208 2.6 7.8 0.00 0.00 0.00 38 1004.8
20260504194531 69 196 3.5 7.8 0.00 0.00 0.00 35 1004.7
20260504194026 69 211 3.5 5.2 0.00 0.00 0.00 39 1004.9
20260504193552 69 47 1.7 7.8 0.00 0.00 0.00 36 1004.8
20260504193039 69 202 2.6 9.6 0.00 0.00 0.00 39 1004.8
20260504192545 68 235 4.3 9.6 0.00 0.00 0.00 37 1004.7
20260504192033 69 268 2.6 9.6 0.00 0.00 0.00 37 1004.9
20260504191534 68 158 2.6 8.7 0.00 0.00 0.00 40 1004.8
20260504191026 67 265 2.6 10.4 0.00 0.00 0.00 39 1004.9
20260504190551 67 309 3.5 13.0 0.00 0.00 0.00 43 1005.0
20260504190030 66 215 3.5 13.0 0.00 0.00 0.00 39 1004.9
20260504185547 67 355 3.5 13.0 0.00 0.00 0.00 41 1005.1
20260504185030 69 199 5.2 13.0 0.00 0.00 0.00 36 1005.0
20260504184526 68 242 3.5 10.4 0.00 0.00 0.00 39 1005.1
20260504184042 67 223 3.5 10.4 0.00 0.00 0.00 42 1005.2
20260504183537 67 261 4.3 10.4 0.00 0.00 0.00 46 1005.1
20260504183041 66 227 2.6 6.1 0.00 0.00 0.00 40 1005.1
20260504182613 66 261 1.7 9.6 0.00 0.00 0.00 45 1005.2
20260504182031 66 227 2.6 8.7 0.00 0.00 0.00 44 1005.0
20260504181529 65 233 2.6 9.6 0.00 0.00 0.00 38 1005.2
20260504181054 65 48 2.6 7.8 0.00 0.00 0.00 47 1005.3
20260504180535 65 175 2.6 7.8 0.00 0.00 0.00 44 1005.3
20260504180048 64 275 2.6 7.8 0.00 0.00 0.00 46 1005.3
20260504175530 64 319 2.6 7.8 0.00 0.00 0.00 43 1005.3
20260504175034 64 269 1.7 10.4 0.00 0.00 0.00 43 1005.3
20260504174530 64 17 2.6 10.4 0.00 0.00 0.00 46 1005.3
20260504174053 64 256 1.7 7.8 0.00 0.00 0.00 40 1005.3
20260504173528 64 154 3.5 9.6 0.00 0.00 0.00 41 1005.5
20260504173053 64 183 2.6 7.0 0.00 0.00 0.00 43 1005.3
20260504172551 64 160 2.6 8.7 0.00 0.00 0.00 43 1005.5
20260504172038 63 342 1.7 8.7 0.00 0.00 0.00 44 1005.5
20260504171552 63 264 3.5 8.7 0.00 0.00 0.00 42 1005.5
20260504171102 64 291 2.6 6.1 0.00 0.00 0.00 38 1005.7
20260504170558 64 121 2.6 6.1 0.00 0.00 0.00 44 1005.5
20260504151034 63 252 3.5 12.2 0.00 0.00 0.00 42 1006.3
20260504150544 63 35 5.2 14.8 0.00 0.00 0.00 41 1006.2
20260504150104 63 267 5.2 14.8 0.00 0.00 0.00 43 1006.2
20260504141036 59 98 4.3 11.3 0.00 0.00 0.00 43 1006.7
20260504140526 59 186 5.2 8.7 0.00 0.00 0.00 43 1006.9
20260504130526 56 169 1.7 7.0 0.00 0.00 0.00 53 1007.6
20260504110530 42 192 0.0 2.6 0.00 0.00 0.00 80 1008.4
20260504100551 39 113 0.0 0.0 0.00 0.00 0.00 84 1008.2
20260504081524 39 134 0.0 2.6 0.00 0.01 0.00 77 1008.2
20260504081032 39 94 1.7 2.6 0.00 0.01 0.00 76 1008.1
20260504080549 39 111 1.7 3.5 0.00 0.01 0.00 77 1008.2
20260504050524 35 360 0.0 0.0 0.00 0.02 0.00 83 1008.3
20260504045554 35 360 0.0 0.0 0.00 0.02 0.02 82 1008.2
20260504045033 35 360 0.0 0.0 0.00 0.02 0.02 82 1008.3
20260504044538 36 360 0.0 0.0 0.00 0.02 0.02 82 1008.3
20260504044054 35 360 0.0 0.0 0.00 0.02 0.02 82 1008.3
20260504043552 34 360 0.0 0.9 0.00 0.02 0.02 82 1008.3
20260504043024 34 360 0.0 1.7 0.00 0.02 0.02 82 1008.3
20260504042547 34 360 0.0 1.7 0.00 0.02 0.02 82 1008.4
20260504042027 34 360 0.0 4.3 0.00 0.02 0.02 82 1008.3
20260504041547 35 360 0.9 4.3 0.00 0.02 0.02 81 1008.3
20260504041032 36 360 0.9 2.6 0.00 0.02 0.02 79 1008.3
20260504040530 36 360 0.9 2.6 0.00 0.02 0.02 79 1008.2
20260504040037 36 360 0.0 0.0 0.00 0.02 0.02 78 1008.2
20260504035530 36 360 0.0 0.0 0.00 0.02 0.02 78 1008.2
20260504035041 36 360 0.0 0.0 0.00 0.02 0.02 81 1008.1
20260504034548 36 360 0.0 0.0 0.00 0.02 0.02 81 1008.1
20260504034028 34 360 0.0 1.7 0.00 0.02 0.02 83 1008.1
20260504033555 34 360 0.9 1.7 0.00 0.02 0.02 83 1008.2
20260504033029 34 360 0.0 0.0 0.00 0.02 0.02 83 1008.2
20260504032523 35 360 0.0 0.0 0.00 0.02 0.02 81 1008.1
20260504032035 36 360 0.0 0.0 0.00 0.02 0.02 81 1008.1
20260504031536 36 360 0.0 0.0 0.00 0.02 0.02 79 1008.1
20260504031025 37 360 0.0 0.9 0.00 0.02 0.02 80 1008.0
20260504030539 36 360 0.0 2.6 0.00 0.02 0.02 81 1007.9
20260504030034 37 360 0.9 2.6 0.00 0.02 0.02 80 1008.0
20260504025544 36 360 0.0 0.0 0.00 0.06 0.02 82 1008.0
20260504025022 36 360 0.0 0.0 0.00 0.06 0.02 79 1008.0
20260504024541 37 360 0.0 0.0 0.00 0.06 0.02 80 1008.1
20260504024044 37 360 0.0 0.0 0.00 0.06 0.02 80 1008.1
20260504023531 37 360 0.0 1.7 0.00 0.06 0.02 77 1008.2
20260504023040 37 172 0.0 1.7 0.00 0.06 0.02 76 1008.2
20260504022533 37 178 0.0 1.7 0.00 0.06 0.02 81 1008.2
20260504022032 37 178 0.9 1.7 0.00 0.06 0.02 78 1008.2
20260504021554 37 168 0.9 2.6 0.00 0.06 0.02 77 1008.2
20260504021037 38 167 0.9 2.6 0.00 0.06 0.02 79 1008.2
20260504020538 38 173 0.9 2.6 0.00 0.06 0.02 77 1008.1
20260504020058 38 171 1.7 2.6 0.00 0.06 0.02 80 1008.2
20260504015547 38 181 0.0 0.0 0.00 0.06 0.02 79 1008.1
20260504015052 38 181 0.0 0.0 0.00 0.06 0.02 79 1008.1
20260504014552 39 181 0.0 0.0 0.00 0.06 0.02 79 1008.1
20260504014032 39 181 0.0 0.0 0.00 0.06 0.02 73 1008.0
20260504013555 39 181 0.0 0.0 0.00 0.06 0.02 78 1008.1
20260504013054 39 181 0.0 0.0 0.00 0.06 0.02 78 1008.1
20260504012532 39 181 0.0 0.0 0.00 0.06 0.02 74 1008.0
20260504012032 39 181 0.0 0.0 0.00 0.06 0.02 74 1007.9
20260504011528 40 181 0.0 0.0 0.00 0.06 0.02 75 1007.9
20260504011023 40 181 0.0 0.0 0.00 0.06 0.02 71 1007.8
20260504010034 40 171 0.0 1.7 0.00 0.06 0.02 77 1007.7
20260504005532 40 215 0.9 1.7 0.00 0.06 0.02 73 1007.8
20260504005044 40 215 0.9 2.6 0.00 0.06 0.02 72 1007.8
20260504004604 40 215 0.9 2.6 0.00 0.06 0.02 74 1007.6
20260504004033 41 192 0.9 4.3 0.00 0.06 0.02 74 1007.6
20260504003550 41 219 1.7 4.3 0.00 0.06 0.02 71 1007.6
20260504003036 41 278 0.9 2.6 0.00 0.06 0.02 70 1007.4
20260504002523 41 205 0.9 4.3 0.00 0.06 0.02 70 1007.4
20260504002029 42 267 0.9 4.3 0.00 0.06 0.02 69 1007.4
20260504001525 42 198 0.9 3.5 0.00 0.06 0.02 66 1007.3
20260504001039 43 325 0.9 3.5 0.00 0.06 0.02 65 1007.2
20260504000525 43 178 0.9 4.3 0.00 0.06 0.02 67 1007.1
20260504000038 42 178 1.7 4.3 0.00 0.06 0.02 70 1007.1
20260503235527 43 57 0.9 7.0 0.00 0.06 0.02 64 1007.1
20260503235032 43 301 1.7 7.0 0.00 0.06 0.02 66 1006.9
20260503234530 44 300 1.7 7.0 0.00 0.06 0.02 61 1006.9
20260503234024 44 194 0.9 9.6 0.00 0.06 0.02 65 1006.9
20260503233532 44 286 2.6 9.6 0.00 0.06 0.02 56 1006.8
20260503233041 44 238 1.7 5.2 0.00 0.06 0.02 60 1006.8
20260503232550 45 323 0.9 6.1 0.00 0.06 0.02 57 1006.7
20260503232034 45 346 1.7 5.2 0.00 0.06 0.02 63 1006.7
20260503231533 45 360 1.7 5.2 0.00 0.06 0.02 62 1006.8
20260503231044 47 355 2.6 7.8 0.00 0.06 0.02 53 1006.8
20260503230527 46 287 3.5 13.0 0.00 0.06 0.02 55 1006.8
20260503230041 46 227 3.5 10.4 0.00 0.06 0.02 55 1006.7
20260503225526 47 328 1.7 12.2 0.00 0.08 0.02 53 1006.7
20260503225041 48 311 4.3 12.2 0.00 0.08 0.02 47 1006.6
20260503224546 47 316 2.6 10.4 0.00 0.08 0.02 51 1006.6
20260503224033 47 271 4.3 10.4 0.00 0.08 0.02 55 1006.6
20260503223534 47 250 3.5 9.6 0.00 0.08 0.02 56 1006.5
20260503223041 47 276 3.5 10.4 0.00 0.08 0.02 56 1006.4
20260503222540 48 331 2.6 10.4 0.00 0.08 0.02 57 1006.4
20260503222059 48 296 3.5 10.4 0.00 0.08 0.02 50 1006.4
20260503221522 48 311 4.3 9.6 0.00 0.08 0.02 48 1006.4
20260503221032 48 290 2.6 13.0 0.00 0.08 0.02 50 1006.3
20260503220534 48 326 4.3 13.0 0.00 0.08 0.02 47 1006.3
20260503220033 48 296 4.3 13.9 0.00 0.08 0.02 46 1006.2
20260503215529 47 294 6.1 17.4 0.00 0.20 0.02 47 1006.2
20260503215033 48 13 3.5 13.0 0.00 0.20 0.02 48 1006.1
20260503214531 48 17 3.5 10.4 0.00 0.20 0.02 50 1006.1
20260503214035 48 296 3.5 14.8 0.00 0.20 0.02 47 1006.1
20260503213541 48 336 6.1 15.6 0.00 0.20 0.02 51 1006.1
20260503213033 48 61 6.1 15.6 0.00 0.20 0.02 45 1006.0
20260503212608 48 5 4.3 10.4 0.00 0.20 0.02 51 1006.0
20260503212038 48 348 1.7 15.6 0.00 0.20 0.02 47 1005.9
20260503211533 48 355 4.3 15.6 0.00 0.20 0.02 48 1006.0
20260503211053 48 196 3.5 13.0 0.00 0.20 0.02 49 1006.1
20260503210553 48 17 5.2 11.3 0.00 0.20 0.02 47 1005.9
20260503210057 48 319 3.5 11.3 0.00 0.20 0.02 56 1005.9
20260503205540 49 231 2.6 13.9 0.00 0.20 0.02 49 1005.8
20260503205044 49 360 5.2 13.9 0.00 0.20 0.02 43 1005.7
20260503204525 48 216 2.6 20.9 0.00 0.20 0.02 50 1005.7
20260503204100 48 344 7.0 20.9 0.00 0.20 0.02 44 1005.6
20260503203546 49 337 6.1 16.5 0.00 0.20 0.02 45 1005.6
20260503203023 49 333 2.6 8.7 0.00 0.20 0.02 51 1005.6
20260503202527 49 216 2.6 13.9 0.00 0.20 0.02 46 1005.5